D1965 Weather Reports


Display with metric or nautical units.
time (UTC)temp
F
wind
direction
speed
MPH
gust
MPH
rain 1hr
in
rain 24hr
in
rain mn
in
humidity
%
barometer
mb
20260508011506 48 0 0.0 0.0 0.00 0.00 0.00 85 1013.0
20260508010505 48 0 0.0 0.0 0.00 0.00 0.00 84 1013.2
20260508010005 48 0 0.0 0.0 0.00 0.00 0.00 84 1013.2
20260508005505 48 0 0.0 0.0 0.00 0.00 0.00 84 1013.2
20260508005004 48 0 0.0 0.0 0.00 0.00 0.00 84 1013.2
20260508004505 48 0 0.0 0.0 0.00 0.00 0.00 84 1013.2
20260508004004 48 0 0.0 0.0 0.00 0.00 0.00 84 1013.2
20260508003505 48 0 0.0 0.0 0.00 0.00 0.00 84 1013.1
20260508003005 48 0 0.0 0.0 0.00 0.00 0.00 83 1013.2
20260508001505 49 0 0.0 0.0 0.00 0.00 0.00 83 1013.2
20260508000506 49 0 0.0 0.0 0.00 0.00 0.00 82 1013.1
20260508000004 49 0 0.0 0.0 0.00 0.00 0.00 82 1013.2
20260507235504 49 0 0.0 0.0 0.00 0.00 0.00 82 1013.2
20260507235004 49 0 0.0 0.0 0.00 0.00 0.00 82 1013.2
20260507234505 49 218 0.0 3.0 0.00 0.00 0.00 82 1013.2
20260507234003 49 218 0.0 3.0 0.00 0.00 0.00 82 1013.3
20260507233506 49 218 0.0 2.0 0.00 0.00 0.00 82 1013.2
20260507233004 49 215 0.0 3.0 0.00 0.00 0.00 82 1013.2
20260507232505 49 213 1.0 3.0 0.00 0.00 0.00 82 1013.2
20260507232003 49 212 1.0 3.0 0.00 0.00 0.00 82 1013.2
20260507231505 49 210 0.0 2.0 0.00 0.00 0.00 82 1013.3
20260507231004 49 0 0.0 0.0 0.00 0.00 0.00 82 1013.2
20260507230505 49 0 0.0 0.0 0.00 0.00 0.00 82 1013.3
20260507230004 49 0 0.0 0.0 0.00 0.00 0.00 82 1013.3
20260507225507 49 0 0.0 0.0 0.00 0.00 0.00 82 1013.3
20260507225004 49 0 0.0 0.0 0.00 0.00 0.00 82 1013.3
20260507224505 49 0 0.0 0.0 0.00 0.00 0.00 82 1013.2
20260507223504 49 0 0.0 0.0 0.00 0.00 0.00 81 1013.1
20260507223003 49 0 0.0 0.0 0.00 0.00 0.00 81 1013.1
20260507222504 49 0 0.0 0.0 0.00 0.00 0.00 81 1013.0
20260507222006 49 0 0.0 0.0 0.00 0.00 0.00 81 1013.1
20260507221504 49 0 0.0 0.0 0.00 0.00 0.00 81 1013.0
20260507221005 49 0 0.0 0.0 0.00 0.00 0.00 81 1013.1
20260507220503 49 0 0.0 0.0 0.00 0.00 0.00 81 1013.0
20260507220005 49 0 0.0 0.0 0.00 0.00 0.00 81 1013.0
20260507215504 49 0 0.0 0.0 0.00 0.00 0.00 81 1013.1
20260507215006 49 0 0.0 0.0 0.00 0.00 0.00 81 1013.1
20260507214505 49 0 0.0 0.0 0.00 0.00 0.00 82 1013.1
20260507214006 49 0 0.0 0.0 0.00 0.00 0.00 82 1013.1
20260507213505 49 0 0.0 0.0 0.00 0.00 0.00 82 1013.0
20260507212505 49 197 0.0 2.0 0.00 0.00 0.00 82 1012.9
20260507211506 50 204 0.0 1.0 0.00 0.00 0.00 81 1012.9
20260507211006 50 204 0.0 1.0 0.00 0.00 0.00 81 1012.9
20260507210505 50 205 0.0 1.0 0.00 0.00 0.00 81 1012.9
20260507210007 50 0 0.0 0.0 0.00 0.00 0.00 80 1012.7
20260507205505 50 0 0.0 0.0 0.00 0.00 0.00 80 1012.8
20260507205006 50 0 0.0 0.0 0.00 0.00 0.00 79 1012.7
20260507204505 51 0 0.0 0.0 0.00 0.00 0.00 79 1012.6
20260507204006 51 215 0.0 1.0 0.00 0.00 0.00 79 1012.5
20260507203506 51 215 1.0 4.0 0.00 0.00 0.00 79 1012.5
20260507203006 51 214 1.0 4.0 0.00 0.00 0.00 79 1012.5
20260507202506 51 215 1.0 5.0 0.00 0.00 0.00 78 1012.4
20260507202006 51 219 2.0 5.0 0.00 0.00 0.00 78 1012.4
20260507201505 51 225 2.0 5.0 0.00 0.00 0.00 78 1012.3
20260507200505 51 229 2.0 6.0 0.00 0.00 0.00 77 1012.2
20260507200007 51 220 2.0 5.0 0.00 0.00 0.00 77 1012.1
20260507195505 51 227 3.0 6.0 0.00 0.00 0.00 77 1012.0
20260507195006 51 227 3.0 8.0 0.00 0.00 0.00 76 1012.0
20260507194506 51 230 3.0 8.0 0.00 0.00 0.00 76 1011.9
20260507194006 52 239 4.0 10.0 0.00 0.00 0.00 75 1011.9
20260507193506 52 238 3.0 10.0 0.00 0.00 0.00 75 1011.9
20260507193006 52 233 3.0 7.0 0.00 0.00 0.00 75 1011.9
20260507192505 52 234 3.0 11.0 0.00 0.00 0.00 75 1011.9
20260507192005 52 234 3.0 11.0 0.00 0.00 0.00 74 1011.9
20260507191505 52 234 3.0 8.0 0.00 0.00 0.00 74 1011.8
20260507191006 52 232 3.0 8.0 0.00 0.00 0.00 74 1011.8
20260507190505 52 229 2.0 8.0 0.00 0.00 0.00 74 1011.7
20260507190006 52 231 2.0 9.0 0.00 0.00 0.00 73 1011.6
20260507185006 53 223 2.0 7.0 0.00 0.00 0.00 73 1011.6
20260507184505 53 207 2.0 6.0 0.00 0.00 0.00 73 1011.6
20260507184008 53 207 2.0 6.0 0.00 0.00 0.00 72 1011.6
20260507183007 53 214 2.0 8.0 0.00 0.00 0.00 72 1011.5
20260507182505 53 220 3.0 9.0 0.00 0.00 0.00 71 1011.5
20260507182006 53 221 3.0 9.0 0.00 0.00 0.00 71 1011.6
20260507181505 53 223 3.0 10.0 0.00 0.00 0.00 70 1011.5
20260507181007 53 223 3.0 10.0 0.00 0.00 0.00 70 1011.4
20260507180006 53 225 3.0 9.0 0.00 0.00 0.00 71 1011.5
20260507175505 53 234 3.0 9.0 0.00 0.00 0.00 70 1011.4
20260507175007 53 236 3.0 9.0 0.00 0.00 0.00 70 1011.4
20260507174505 53 232 3.0 9.0 0.00 0.00 0.00 70 1011.5
20260507174006 54 232 3.0 12.0 0.00 0.00 0.00 70 1011.5
20260507173505 54 231 3.0 12.0 0.00 0.00 0.00 69 1011.5
20260507173007 54 231 3.0 9.0 0.00 0.00 0.00 70 1011.5
20260507172007 54 236 4.0 10.0 0.00 0.00 0.00 69 1011.4
20260507171505 54 234 2.0 7.0 0.00 0.00 0.00 69 1011.4
20260507171006 54 228 2.0 7.0 0.00 0.00 0.00 69 1011.5
20260507170006 54 228 3.0 11.0 0.00 0.00 0.00 69 1011.5
20260507165504 54 236 4.0 11.0 0.00 0.00 0.00 69 1011.5
20260507165005 54 238 4.0 11.0 0.00 0.00 0.00 68 1011.5
20260507164505 54 231 3.0 7.0 0.00 0.00 0.00 69 1011.5
20260507164007 55 233 3.0 8.0 0.00 0.00 0.00 69 1011.5
20260507163505 55 233 4.0 11.0 0.00 0.00 0.00 68 1011.4
20260507163007 55 237 4.0 11.0 0.00 0.00 0.00 67 1011.3
20260507162505 55 236 4.0 9.0 0.00 0.00 0.00 66 1011.3
20260507162007 56 234 5.0 10.0 0.00 0.00 0.00 64 1011.3
20260507161505 56 235 4.0 10.0 0.00 0.00 0.00 63 1011.2
20260507161006 57 236 4.0 9.0 0.00 0.00 0.00 62 1011.2
20260507160505 57 252 4.0 8.0 0.00 0.00 0.00 59 1011.2
20260507160005 57 269 4.0 8.0 0.00 0.00 0.00 59 1011.1
20260507155504 57 270 4.0 9.0 0.00 0.00 0.00 58 1011.2
20260507155007 57 269 4.0 9.0 0.00 0.00 0.00 57 1011.1
20260507154505 57 260 4.0 9.0 0.00 0.00 0.00 58 1011.2
20260507154006 57 254 3.0 7.0 0.00 0.00 0.00 58 1011.1
20260507153505 57 264 4.0 9.0 0.00 0.00 0.00 59 1011.1
20260507153006 57 264 4.0 9.0 0.00 0.00 0.00 58 1011.2
20260507152505 57 251 3.0 8.0 0.00 0.00 0.00 58 1011.2
20260507152006 57 243 4.0 9.0 0.00 0.00 0.00 58 1011.2
20260507151505 58 254 4.0 9.0 0.00 0.00 0.00 56 1011.2
20260507151006 58 253 4.0 9.0 0.00 0.00 0.00 57 1011.1
20260507150505 58 245 4.0 9.0 0.00 0.00 0.00 57 1011.1
20260507145504 58 235 3.0 9.0 0.00 0.00 0.00 54 1011.1
20260507144505 58 245 4.0 8.0 0.00 0.00 0.00 56 1011.1
20260507143505 58 235 4.0 10.0 0.00 0.00 0.00 55 1011.2
20260507143005 59 243 4.0 9.0 0.00 0.00 0.00 53 1011.2
20260507142006 58 261 3.0 8.0 0.00 0.00 0.00 56 1011.2
20260507141505 58 259 3.0 7.0 0.00 0.00 0.00 57 1011.2
20260507141007 58 254 3.0 8.0 0.00 0.00 0.00 57 1011.3
20260507140505 58 256 3.0 8.0 0.00 0.00 0.00 56 1011.3
20260507140007 58 257 3.0 8.0 0.00 0.00 0.00 55 1011.4
20260507135505 58 263 4.0 11.0 0.00 0.00 0.00 55 1011.4
20260507135005 58 266 4.0 11.0 0.00 0.00 0.00 56 1011.4
20260507134505 58 246 3.0 9.0 0.00 0.00 0.00 55 1011.4
20260507134007 58 216 2.0 7.0 0.00 0.00 0.00 55 1011.4
20260507133505 58 227 3.0 9.0 0.00 0.00 0.00 52 1011.4
20260507132504 58 239 3.0 8.0 0.00 0.00 0.00 54 1011.6
20260507132006 58 245 2.0 7.0 0.00 0.00 0.00 54 1011.5
20260507131505 59 235 3.0 8.0 0.00 0.00 0.00 56 1011.4
20260507131007 59 232 3.0 8.0 0.00 0.00 0.00 54 1011.5
20260507130505 58 235 4.0 8.0 0.00 0.00 0.00 59 1011.5
20260507130006 57 239 5.0 13.0 0.00 0.00 0.00 56 1011.6
20260507125505 58 237 4.0 13.0 0.00 0.00 0.00 55 1011.6
20260507124505 57 228 4.0 11.0 0.00 0.00 0.00 57 1011.7
20260507124006 57 243 5.0 11.0 0.00 0.00 0.00 58 1011.7
20260507123505 57 240 5.0 13.0 0.00 0.00 0.00 59 1011.7
20260507123005 58 231 5.0 13.0 0.00 0.00 0.00 58 1011.6
20260507122504 58 237 5.0 12.0 0.00 0.00 0.00 60 1011.8
20260507122005 57 237 4.0 12.0 0.00 0.00 0.00 60 1011.7
20260507121005 57 222 4.0 8.0 0.00 0.00 0.00 60 1011.7
20260507120505 57 220 4.0 8.0 0.00 0.00 0.00 61 1011.7
20260507120005 57 225 3.0 8.0 0.00 0.00 0.00 60 1011.7
20260507115504 57 237 4.0 11.0 0.00 0.00 0.00 61 1011.7
20260507115005 57 235 4.0 11.0 0.00 0.00 0.00 63 1011.8
20260507114505 57 236 4.0 9.0 0.00 0.00 0.00 61 1011.7
20260507114006 57 236 4.0 9.0 0.00 0.00 0.00 63 1011.9
20260507113505 56 229 4.0 9.0 0.00 0.00 0.00 63 1011.8
20260507113006 57 224 3.0 10.0 0.00 0.00 0.00 63 1011.8
20260507112505 57 225 3.0 10.0 0.00 0.00 0.00 66 1011.9
20260507111506 56 165 2.0 6.0 0.00 0.00 0.00 71 1011.9
20260507111005 55 149 2.0 7.0 0.00 0.00 0.00 73 1011.9
20260507105504 54 158 2.0 6.0 0.00 0.00 0.00 73 1011.9
20260507104505 53 144 2.0 6.0 0.00 0.00 0.00 77 1012.0
20260507104005 53 153 2.0 6.0 0.00 0.00 0.00 77 1012.0
20260507103505 53 142 2.0 6.0 0.00 0.00 0.00 76 1012.1
20260507102505 53 148 2.0 6.0 0.00 0.00 0.00 78 1012.1
20260507102007 53 139 2.0 7.0 0.00 0.00 0.00 78 1012.0
20260507101506 53 127 3.0 10.0 0.00 0.00 0.00 79 1012.1
20260507100504 52 129 2.0 7.0 0.00 0.00 0.00 80 1012.1
20260507100006 52 138 2.0 8.0 0.00 0.00 0.00 81 1012.2
20260507095005 52 114 3.0 8.0 0.00 0.00 0.00 84 1012.1
20260507094504 53 129 2.0 8.0 0.00 0.00 0.00 83 1012.1
20260507093504 52 140 2.0 7.0 0.00 0.00 0.00 87 1012.1
20260507093005 51 132 3.0 7.0 0.00 0.00 0.00 87 1012.1
20260507092006 50 127 3.0 8.0 0.00 0.00 0.00 86 1012.0
20260507091504 50 121 4.0 9.0 0.00 0.00 0.00 84 1012.0
20260507091006 51 129 3.0 9.0 0.00 0.00 0.00 83 1012.1
20260507090505 52 150 3.0 8.0 0.00 0.00 0.00 79 1012.0
20260507090009 52 146 2.0 7.0 0.00 0.00 0.00 78 1012.0
20260507085504 52 144 3.0 7.0 0.00 0.00 0.00 79 1012.0
20260507085005 52 145 3.0 7.0 0.00 0.00 0.00 79 1012.0
20260507084504 52 152 2.0 6.0 0.00 0.00 0.00 80 1012.0
20260507084005 52 158 2.0 6.0 0.00 0.00 0.00 80 1012.1
20260507083505 52 149 3.0 6.0 0.00 0.00 0.00 80 1012.0
20260507083005 51 146 2.0 6.0 0.00 0.00 0.00 82 1012.0
20260507082505 51 160 2.0 6.0 0.00 0.00 0.00 83 1012.0
20260507082006 51 139 2.0 7.0 0.00 0.00 0.00 82 1012.1
20260507081005 51 136 1.0 4.0 0.00 0.00 0.00 84 1012.1
20260507080005 51 154 1.0 5.0 0.00 0.00 0.00 83 1012.1
20260507075504 51 151 1.0 4.0 0.00 0.00 0.00 83 1012.0
20260507075006 50 163 0.0 2.0 0.00 0.00 0.00 84 1012.1
20260507074504 50 163 0.0 2.0 0.00 0.00 0.00 84 1012.0
20260507074005 50 154 0.0 4.0 0.00 0.00 0.00 85 1012.0
20260507072504 50 0 0.0 0.0 0.00 0.00 0.00 85 1012.1
20260507072005 49 0 0.0 0.0 0.00 0.00 0.00 85 1012.0
20260507071006 49 192 0.0 2.0 0.00 0.00 0.00 85 1012.0
20260507070504 49 194 0.0 2.0 0.00 0.00 0.00 86 1012.0
20260507070010 48 194 0.0 2.0 0.00 0.00 0.00 86 1012.1
20260507065005 48 166 0.0 4.0 0.00 0.00 0.00 86 1011.9
20260507064504 48 150 1.0 4.0 0.00 0.00 0.00 86 1012.0
20260507064005 48 139 1.0 4.0 0.00 0.00 0.00 86 1012.0
20260507063504 47 128 0.0 3.0 0.00 0.00 0.00 87 1012.0
20260507063005 47 0 0.0 0.0 0.00 0.00 0.00 87 1012.1
20260507062504 47 0 0.0 0.0 0.00 0.00 0.00 87 1012.0
20260507060504 46 0 0.0 0.0 0.00 0.00 0.00 87 1012.0
20260507060005 46 0 0.0 0.0 0.00 0.00 0.00 87 1012.0
20260507055504 46 0 0.0 0.0 0.00 0.00 0.00 86 1011.9
20260507055005 46 0 0.0 0.0 0.00 0.00 0.00 86 1012.0
20260507053504 46 0 0.0 0.0 0.00 0.00 0.00 86 1011.9
20260507053005 46 0 0.0 0.0 0.00 0.00 0.00 86 1011.8
20260507052504 46 0 0.0 0.0 0.00 0.00 0.00 86 1011.8
20260507052004 46 0 0.0 0.0 0.00 0.00 0.00 86 1011.8
20260507051504 46 0 0.0 0.0 0.00 0.00 0.00 86 1011.7
20260507051005 46 0 0.0 0.0 0.00 0.00 0.00 85 1011.6
20260507050504 46 0 0.0 0.0 0.00 0.00 0.00 86 1011.7
20260507050006 46 0 0.0 0.0 0.00 0.00 0.00 86 1011.6
20260507045504 46 0 0.0 0.0 0.00 0.00 0.00 86 1011.7
20260507045005 46 0 0.0 0.0 0.00 0.00 0.00 86 1011.7
20260507044005 46 0 0.0 0.0 0.00 0.00 0.00 86 1011.7
20260507043504 46 0 0.0 0.0 0.00 0.00 0.00 86 1011.7
20260507043004 46 0 0.0 0.0 0.00 0.00 0.00 85 1011.8
20260507042504 46 0 0.0 0.0 0.00 0.00 0.00 85 1011.6
20260507042005 46 0 0.0 0.0 0.00 0.00 0.00 85 1011.7
20260507041504 46 0 0.0 0.0 0.00 0.00 0.00 86 1011.8
20260507041004 47 0 0.0 0.0 0.00 0.00 0.00 86 1011.8
20260507040504 47 0 0.0 0.0 0.00 0.00 0.00 86 1011.7
20260507040005 47 0 0.0 0.0 0.00 0.00 0.00 86 1011.7
20260507035504 47 0 0.0 0.0 0.00 0.00 0.00 86 1011.8
20260507035004 47 0 0.0 0.0 0.00 0.00 0.00 86 1011.7
20260507034504 47 164 0.0 2.0 0.00 0.00 0.00 86 1011.8
20260507034004 47 164 0.0 2.0 0.00 0.00 0.00 86 1011.8
20260507033504 47 163 0.0 2.0 0.00 0.00 0.00 86 1011.8
20260507033005 47 163 0.0 1.0 0.00 0.00 0.00 86 1011.8
20260507032504 47 163 0.0 2.0 0.00 0.00 0.00 86 1011.9
20260507032005 47 163 0.0 2.0 0.00 0.00 0.00 86 1011.9
20260507031504 47 164 0.0 2.0 0.00 0.00 0.00 86 1012.0
20260507030503 47 174 1.0 5.0 0.00 0.00 0.00 86 1011.9
20260507030006 47 176 0.0 5.0 0.00 0.00 0.00 86 1011.9
20260507025504 47 0 0.0 0.0 0.00 0.00 0.00 86 1012.0
20260507025005 47 0 0.0 0.0 0.00 0.00 0.00 86 1012.0
20260507024004 47 0 0.0 0.0 0.00 0.00 0.00 86 1012.1
20260507023504 47 0 0.0 0.0 0.00 0.00 0.00 86 1012.1
20260507023006 47 0 0.0 0.0 0.00 0.00 0.00 86 1012.1
20260507022504 47 0 0.0 0.0 0.00 0.00 0.00 85 1012.1
20260507022005 47 0 0.0 0.0 0.00 0.00 0.00 86 1012.0
20260507021005 47 0 0.0 0.0 0.00 0.00 0.00 86 1012.2
20260507020504 47 0 0.0 0.0 0.00 0.00 0.00 85 1012.1
20260507020005 47 0 0.0 0.0 0.00 0.00 0.00 85 1012.1
20260507015504 47 0 0.0 0.0 0.00 0.00 0.00 85 1012.2
20260507014504 47 0 0.0 0.0 0.00 0.00 0.00 85 1012.1
20260507014005 47 0 0.0 0.0 0.00 0.00 0.00 85 1012.1
20260507013005 47 0 0.0 0.0 0.00 0.00 0.00 85 1012.2
20260507012504 47 0 0.0 0.0 0.00 0.00 0.00 85 1012.2
20260507012005 47 0 0.0 0.0 0.00 0.00 0.00 85 1012.3